Flight Track Log - Related Links

Times and Time Zones

All times are in EDT time to prevent confusion due to time zone crossing. See the JBU1329 flight status page for this flight to view local times or setup timezone preferences in your user account.

Time Position Orientation Groundspeed Altitude Reporting Facility
EDT Latitude Longitude Course Direction KTS MPH feet Rate Location/Type
08:23 42.3667 -70.9833 270° West 139 160 900  Level KA90
08:24 42.3667 -70.9000 90° East 196 226 2,500 1,532 Climbing KA90
08:24 42.3833 -70.8717 51° Northeast 223 257 3,300 2,000 Climbing Boston Center
08:25 42.3883 -70.7817 86° East 251 289 5,400 2,200 Climbing Boston Center
08:26 42.2893 -70.7328 228° Southwest  Level FlightAware Approximate
08:26 42.3311 -70.7269 145° Southeast 222 255 7,700  Level Boston Center
08:27 42.2261 -70.8335 240° Southwest  Level FlightAware Approximate
08:27 42.2586 -70.7569 197° South 203 234 10,200  Level Boston Center
08:28 42.1833 -70.9502 270° West  Level FlightAware Approximate
08:28 42.2100 -70.8536 236° Southwest 231 266 11,400  Level Boston Center
08:29 42.1972 -70.9744 262° West 266 306 13,300 1,869 Climbing Boston Center
08:30 42.1800 -71.1008 260° West 310 357 15,200 2,182 Climbing Boston Center
08:31 42.1625 -71.2078 258° West 317 365 17,700 1,949 Climbing Boston Center
08:32 42.1489 -71.3172 261° West 317 365 19,000 1,627 Climbing Boston Center
08:33 42.1314 -71.4350 259° West 317 365 20,900 1,686 Climbing Boston Center
08:34 42.1156 -71.5528 260° West 317 365 22,400 1,140 Climbing Boston Center
08:35 42.0936 -71.6792 257° West 327 376 23,200 595 Climbing Boston Center
08:36 42.0714 -71.8164 258° West 356 410 23,600 545 Climbing Boston Center
08:37 42.0492 -71.9647 259° West 386 444 24,300 885 Climbing Boston Center
08:38 42.0308 -72.0850 258° West 403 464 25,400 1,300 Climbing Boston Center
08:39 41.9772 -72.2614 248° West 414 476 26,900 1,179 Climbing Boston Center
08:40 41.9169 -72.3814 236° Southwest 422 486 27,700 915 Climbing Boston Center
08:41 41.8461 -72.5153 235° Southwest 435 501 28,700 950 Climbing Boston Center
08:42 41.7728 -72.6517 234° Southwest 447 514 29,600 893 Climbing Boston Center
08:43 41.7017 -72.7906 236° Southwest 452 520 30,500 1,082 Climbing Boston Center
08:44 41.6283 -72.9289 235° Southwest 452 520 31,800 744 Climbing Boston Center
08:45 41.5567 -73.0642 235° Southwest 452 520 32,000 102 Climbing Boston Center
08:46 41.4828 -73.2075 235° Southwest 445 512 32,000  Level Boston Center
08:47 41.4111 -73.3453 235° Southwest 450 518 32,000 -396 Level Boston Center
08:49 41.3334 -73.4646 229° Southwest  Level FlightAware Approximate
08:49 41.2647 -73.6164 229° Southwest 450 518 30,800  Level Boston Center
08:51 41.1431 -73.8211 232° Southwest 432 497 30,000 -316 Descending New York Center
08:52 41.0625 -73.9522 231° Southwest 446 513 30,000  Level New York Center
08:53 40.9839 -74.0861 232° Southwest 463 533 30,000  Level New York Center
08:54 40.9097 -74.2006 229° Southwest 463 533 30,000 -248 Level New York Center
08:55 40.8331 -74.3308 232° Southwest 463 533 29,500 -1,017 Descending New York Center
08:56 40.7561 -74.4556 231° Southwest 455 524 28,000 -750 Descending New York Center
08:57 40.6683 -74.6014 232° Southwest 455 524 28,000 -694 Level New York Center
08:58 40.5933 -74.7283 232° Southwest 455 524 26,600 -2,034 Descending New York Center
08:59 40.5122 -74.8411 227° Southwest 450 518 24,000 -2,600 Descending New York Center
09:00 40.4375 -74.9511 228° Southwest 430 495 21,400 -1,918 Descending New York Center
09:01 40.3653 -75.0503 226° Southwest 408 470 20,100 -706 Descending New York Center
09:02 40.3256 -75.1622 245° Southwest 350 403 20,000 -400 Descending New York Center
09:03 40.2967 -75.2719 251° West 341 392 19,300 -992 Descending New York Center
09:04 40.2089 -75.3261 205° Southwest 324 373 18,000 -1,008 Descending New York Center
09:05 40.1339 -75.3808 209° Southwest 343 395 17,300 -950 Descending New York Center
09:06 40.0614 -75.4739 225° Southwest 338 389 16,100 -605 Descending New York Center
09:07 40.0042 -75.5486 225° Southwest 333 383 16,100  Level New York Center
09:08 39.9356 -75.6494 228° Southwest 338 389 16,100 -197 Level New York Center
09:09 39.8842 -75.7325 231° Southwest 338 389 15,700 -950 Descending New York Center
09:10 39.8297 -75.8367 236° Southwest 333 383 14,200 -950 Descending New York Center
09:11 39.7817 -75.9306 236° Southwest 317 365 13,800 -559 Descending New York Center
09:12 39.7361 -76.0189 236° Southwest 309 356 13,100 -355 Descending New York Center
09:14 39.6500 -76.2000 238° Southwest 278 320 12,700 -680 Descending Potomac TRACON
09:15 39.6000 -76.2833 232° Southwest 272 313 10,900 -1,550 Descending Potomac TRACON
09:16 39.5833 -76.3667 255° West 271 312 9,600 -1,000 Descending Potomac TRACON
09:17 39.5667 -76.4667 258° West 268 308 9,000 -298 Descending Potomac TRACON
09:18 39.5667 -76.5667 270° West 266 306 9,000 -50 Level Potomac TRACON
09:19 39.5500 -76.6667 258° West 269 310 8,900 -950 Descending Potomac TRACON
09:20 39.5167 -76.7500 243° Southwest 265 305 7,100 -1,650 Descending Potomac TRACON
09:21 39.4667 -76.8000 218° Southwest 257 296 5,600 -1,200 Descending Potomac TRACON
09:22 39.4167 -76.8500 218° Southwest 222 255 4,700 -842 Descending Potomac TRACON
09:23 39.3833 -76.9000 229° Southwest 205 236 4,000 -368 Descending Potomac TRACON
09:24 39.3333 -76.9500 218° Southwest 203 234 4,000  Level Potomac TRACON
09:25 39.3000 -76.9833 218° Southwest 204 235 4,000  Level Potomac TRACON
09:26 39.2500 -77.0333 218° Southwest 186 214 4,000 -250 Level Potomac TRACON
09:27 39.2167 -77.0333 180° South 194 223 3,500 -800 Descending Potomac TRACON
09:28 39.2000 -76.9667 108° East 187 215 2,400 -1,100 Descending Potomac TRACON

Login

Don't have an account? Register now (free) for customized features, flight alerts, and more!